Find Starlink 37166

NORAD ID: 69195 Int'l Des: 2026-114 Owner: SPXS Country: US Constellation: starlink operational
LEOCIRCULAR

現在のビュー

3D地球を読み込み中...

About Starlink 37166

Starlink 37166 (NORAD 69195) is a starlink constellation satellite (v2 mini) launched May 25, 2026 by SPXS of US. It operates in LEO, CIRCULAR orbit with a mass of 575.00 kg.

次回通過

Passes for default location (London). Set your location on the main map for personalized predictions.

高度履歴

Loading altitude history...

軌道要素

1 69195U 26114P 26228.44171725 -.00000396 00000-0 -59896-6 0 9998
2 69195 53.1571 277.6257 0001268 63.4594 296.6539 15.34388562 14064
Epoch: Aug 16, 2026 • Age: 19 hours

現在のステータス

高度 465.6 km
遠地点 / 近地点 N/A
速度 7.63 km/s
衛星直下点 -11.34°S, 139.7°W
打ち上げ日 May 25, 2026
運用期間 0.2 years
タイプ internet

技術仕様

分類 Payload
質量 575.00 kg
乾燥質量 530.00 kg
総質量 575.00 kg
長さ 0.30 m
直径 4.10 m
スパン 29.00 m
形状 Box + pan
製造者 SPXS
バスタイプ Starlink V2MO
フェーズステータス In Orbit
所有者/国 SPXS/US

Most Searched